Location: Unspecified
(0.0000°N, 0.0000°E)
Time: 07:17:54
(UTC+00:00)

Altair - All Passes

Search period start: 30 May 2017 00:00
Search period end: 09 June 2017 00:00
Orbit: 1501 x 1682 km, 47.2° (Epoch: 29 May)

Date Brightness Start Highest point End Pass type
(mag) Time Alt. Az. Time Alt. Az. Time Alt. Az.
30 May - 03:37:59 10° SSE 03:41:55 13° SE 03:45:52 10° ESE visible
30 May - 05:37:18 10° SSW 05:46:57 73° SE 05:56:55 10° NE daylight
30 May - 07:44:21 10° W 07:51:48 24° NW 07:59:26 10° N daylight
30 May - 16:24:30 10° N 16:32:44 31° NE 16:40:42 10° ESE daylight
30 May - 18:28:04 10° NW 18:37:20 55° SW 18:46:22 10° SSE visible
31 May - 03:14:31 10° SSE 03:16:38 11° SE 03:18:45 10° ESE visible
31 May - 05:12:15 10° SSW 05:21:47 66° SE 05:31:38 10° NE visible
31 May - 07:18:42 10° WSW 07:26:33 27° NW 07:34:38 10° N daylight
31 May - 15:59:39 10° N 16:07:32 28° NE 16:15:10 10° ESE daylight
31 May - 18:02:45 10° NW 18:12:12 62° SW 18:21:22 10° SSE visible
01 Jun - 04:47:13 10° SSW 04:56:37 59° SE 05:06:19 10° NE visible
01 Jun - 06:53:07 10° WSW 07:01:20 31° NW 07:09:48 10° N daylight
01 Jun - 15:34:51 10° N 15:42:19 24° NE 15:49:34 10° E daylight
01 Jun - 17:37:28 10° NW 17:47:04 70° SW 17:56:20 10° SSE daylight
01 Jun - 19:49:21 10° WSW 19:52:04 11° SW 19:54:48 10° SSW visible
02 Jun - 04:22:14 10° SSW 04:31:27 52° SE 04:40:59 10° NE visible
02 Jun - 06:27:37 10° WSW 06:36:07 34° NW 06:44:54 10° NNE daylight
02 Jun - 15:10:07 10° N 15:17:05 22° NE 15:23:52 10° E daylight
02 Jun - 17:12:13 10° NW 17:21:56 78° SW 17:31:17 10° SE daylight
02 Jun - 19:22:36 10° WSW 19:26:49 14° SW 19:31:00 10° SSW visible
03 Jun - 03:57:17 10° SSW 04:06:18 47° SE 04:15:35 10° ENE visible
03 Jun - 06:02:10 10° WSW 06:10:54 39° NW 06:19:58 10° NNE daylight
03 Jun - 14:45:27 10° N 14:51:50 19° NE 14:58:03 10° E daylight
03 Jun - 16:47:00 10° NW 16:56:47 86° SW 17:06:11 10° SE daylight
03 Jun - 18:56:19 10° W 19:01:34 16° SW 19:06:46 10° SSW visible
04 Jun - 03:32:21 10° SSW 03:41:08 41° SE 03:50:09 10° ENE visible
04 Jun - 05:36:46 10° WSW 05:45:43 43° NW 05:55:00 10° NNE daylight
04 Jun - 14:20:53 10° N 14:26:34 17° NE 14:32:07 10° E daylight
04 Jun - 16:21:49 10° NW 16:31:38 85° NE 16:41:05 10° SE daylight
04 Jun - 18:30:17 10° W 18:36:20 19° SW 18:42:21 10° S visible
05 Jun - 03:07:29 10° SSW 03:15:58 37° SE 03:24:40 10° ENE visible
05 Jun - 05:11:25 10° WSW 05:20:31 48° NW 05:29:59 10° NNE visible
05 Jun - 13:56:29 10° NNE 14:01:17 14° NE 14:05:59 10° ENE daylight
05 Jun - 15:56:40 10° NW 16:06:29 77° NE 16:15:56 10° SE daylight
05 Jun - 18:04:23 10° W 18:11:08 21° SW 18:17:46 10° S daylight
06 Jun - 02:42:38 10° S 02:50:47 32° SE 02:59:07 10° ENE visible
06 Jun - 04:46:06 10° SW 04:55:20 54° NW 05:04:56 10° NNE visible
06 Jun - 13:32:23 10° NNE 13:35:59 12° NE 13:39:32 10° ENE daylight
06 Jun - 15:31:32 10° NNW 15:41:20 69° NE 15:50:45 10° SE daylight
06 Jun - 17:38:37 10° W 17:45:55 24° SW 17:53:07 10° S daylight
07 Jun - 02:17:51 10° S 02:25:36 29° SE 02:33:32 10° ENE visible
07 Jun - 04:20:50 10° SW 04:30:10 61° NW 04:39:53 10° NNE visible
07 Jun - 13:09:09 10° NNE 13:10:39 10° NE 13:12:09 10° NE daylight
07 Jun - 15:06:27 10° NNW 15:16:10 62° NE 15:25:31 10° SE daylight
07 Jun - 17:12:56 10° WNW 17:20:44 28° SW 17:28:23 10° S daylight
08 Jun - 01:53:06 10° S 02:00:25 25° SE 02:07:52 10° E visible
08 Jun - 03:55:36 10° SW 04:05:00 68° NW 04:14:47 10° NNE visible
08 Jun - 06:07:10 10° WNW 06:10:24 12° NW 06:13:39 10° NNW daylight
08 Jun - 14:41:22 10° NNW 14:51:00 56° NE 15:00:16 10° SE daylight
08 Jun - 16:47:18 10° WNW 16:55:33 31° SW 17:03:36 10° S daylight
